Smyrna, TN

11:20 AM CDT on July 28, 2017 (GMT -0500)
Smyrna

Weather History for KMQY - November, 2012

Change the Weather History Date:

Tuesday, November 27, 2012

  Actual Average Record
Temperature  
Mean Temperature 42 °F -  
Max Temperature 45 °F 53 °F 77 °F (1998)
Min Temperature 37 °F 38 °F 19 °F (2013)
Degree Days  
Heating Degree Days 24    
Moisture  
Dew Point 38 °F    
Average Humidity 87    
Maximum Humidity 100    
Minimum Humidity 76    
Precipitation  
Precipitation 0.01 in - - ()
Sea Level Pressure  
Sea Level Pressure 30.27 in    
Wind  
Wind Speed 11 mph (North)    
Max Wind Speed 15 mph    
Max Gust Speed 17 mph    
Visibility 8 miles    
Events Rain    
Averages and records for this station are not official NWS values.
T = Trace of Precipitation, MM = Missing Value Source: NWS Daily Summary

Daily Weather History Graph

Daily Weather History Graph

Search for Another Location

Airport or City:

Trip Planner

Search our weather history database for the weather conditions in past years. The results will help you decide how hot, cold, wet, or windy it might be!

Date:

Astronomy

Nov. 27, 2012 Rise Set
Actual Time 6:34 AM CST 4:32 PM CST
Civil Twilight 6:06 AM CST 5:00 PM CST
Nautical Twilight 5:35 AM CST 5:32 PM CST
Astronomical Twilight 5:04 AM CST 6:03 PM CST
Moon 4:03 PM CST (11/27) 5:40 AM CST (11/27)
Length of Visible Light 10h 53m
Length of Day
9h 57m
Waxing Gibbous, 99% of the Moon is Illuminated
Nov 27
Waxing Gibbous
Nov 28
Full
Dec 6
Last Quarter
Dec 13
New
Dec 19
First Quarter

Hourly Weather History & Observations

Time (CST) Temp. Windchill Dew Point Humidity Pressure Visibility Wind Dir Wind Speed Gust Speed Precip Events Conditions
12:31 AM 44.6 °F 38.4 °F 44.6 °F 100% 30.16 in 1.8 mi North 12.7 mph - 0.00 in Rain Light Rain
12:39 AM 44.6 °F 39.2 °F 44.6 °F 100% 30.17 in 2.0 mi North 10.4 mph - 0.00 in Rain Light Rain
12:56 AM 45.0 °F 38.5 °F 43.9 °F 96% 30.17 in 4.0 mi North 13.8 mph - 0.00 in   Overcast
1:09 AM 44.6 °F 38.1 °F 44.6 °F 100% 30.17 in 2.5 mi North 13.8 mph - 0.00 in Rain Light Rain
1:18 AM 44.6 °F 38.1 °F 44.6 °F 100% 30.18 in 1.8 mi North 13.8 mph - 0.00 in Rain Light Rain
1:46 AM 44.6 °F 38.1 °F 42.8 °F 93% 30.18 in 5.0 mi North 13.8 mph - 0.01 in Rain Rain
1:56 AM 43.9 °F 37.9 °F 43.0 °F 97% 30.18 in 5.0 mi North 11.5 mph - 0.01 in Rain Light Rain
2:35 AM 42.8 °F 37.5 °F 42.8 °F 100% 30.20 in 10.0 mi North 9.2 mph - 0.00 in   Overcast
2:56 AM 43.0 °F 36.0 °F 41.9 °F 96% 30.18 in 10.0 mi North 13.8 mph - 0.00 in Rain Light Rain
3:56 AM 43.0 °F 36.8 °F 41.0 °F 93% 30.20 in 10.0 mi North 11.5 mph - 0.00 in   Overcast
4:31 AM 42.8 °F 36.2 °F 41.0 °F 93% 30.21 in 9.0 mi North 12.7 mph - N/A   Overcast
4:56 AM 41.9 °F 34.3 °F 41.0 °F 97% 30.21 in 7.0 mi North 15.0 mph - N/A   Overcast
6:56 AM 41.0 °F 34.7 °F 38.8 °F 92% 30.25 in 8.0 mi North 10.4 mph - N/A   Overcast
7:56 AM 41.0 °F 35.2 °F 38.8 °F 92% 30.28 in 6.0 mi North 9.2 mph - N/A   Overcast
8:56 AM 41.9 °F 36.3 °F 38.8 °F 89% 30.32 in 5.0 mi North 9.2 mph - N/A   Overcast
9:03 AM 42.8 °F 36.2 °F 37.4 °F 81% 30.32 in 8.0 mi North 12.7 mph - N/A   Overcast
9:56 AM 41.9 °F 35.9 °F 37.9 °F 86% 30.33 in 5.0 mi NNE 10.4 mph - N/A   Overcast
11:56 AM 41.9 °F 35.4 °F 36.9 °F 82% 30.30 in 10.0 mi NNE 11.5 mph - N/A   Overcast
12:56 PM 41.9 °F 35.9 °F 36.9 °F 82% 30.30 in 10.0 mi NNE 10.4 mph - N/A   Overcast
1:19 PM 42.8 °F 36.6 °F 35.6 °F 76% 30.30 in 10.0 mi NNE 11.5 mph - N/A   Overcast
1:56 PM 41.9 °F 36.3 °F 36.9 °F 82% 30.29 in 10.0 mi North 9.2 mph - N/A   Overcast
2:12 PM 42.8 °F 37.0 °F 37.4 °F 81% 30.30 in 10.0 mi North 10.4 mph - N/A   Overcast
2:56 PM 41.9 °F 36.9 °F 34.9 °F 76% 30.30 in 10.0 mi North 8.1 mph - N/A   Overcast
3:56 PM 41.0 °F 34.7 °F 34.9 °F 79% 30.32 in 10.0 mi North 10.4 mph - N/A   Overcast
4:56 PM 41.0 °F 35.8 °F 34.9 °F 79% 30.34 in 10.0 mi North 8.1 mph - N/A   Overcast
5:56 PM 39.9 °F 34.5 °F 34.0 °F 79% 30.35 in 10.0 mi North 8.1 mph 17.3 mph N/A   Overcast
6:56 PM 39.9 °F 35.8 °F 32.9 °F 76% 30.37 in 10.0 mi North 5.8 mph - N/A   Overcast
7:56 PM 38.8 °F 33.8 °F 32.9 °F 79% 30.37 in 10.0 mi North 6.9 mph - N/A   Overcast
8:56 PM 38.8 °F - 32.9 °F 79% 30.36 in 10.0 mi Calm Calm - N/A   Overcast
9:56 PM 38.8 °F - 32.0 °F 76% 30.36 in 10.0 mi Calm Calm - N/A   Overcast
10:56 PM 38.8 °F 35.4 °F 32.0 °F 76% 30.36 in 10.0 mi North 4.6 mph - N/A   Overcast
11:56 PM 37.9 °F - 32.0 °F 79% 30.36 in 10.0 mi Calm Calm - N/A   Overcast